Notices

What's New in latest Release from April 7th, 2021:

- Updated Glossary, including Speed of Maximum Gust, and Total Hourly Precipitation

- Updated national and regional climate services offices contacts and prices information

- Addition of station inventory lists for 1981-2010, 1971-2000, and 1961-1990 Normals.

If you haven't already, please take our survey and provide feedback about our website: https://eccc.sondage-survey.ca/f/LanguageSelection.aspx?s=442ca660-fcf1-47c0-95a9-59707d6fd709

Hourly Data Report for April 21, 2021

PORT HARDY A
BRITISH COLUMBIA
Current Station Operator: NAVCAN

50°40'50.000" N
127°22'00.000" W
21.60 m
1026271
71109
YZT

Download Data

Hourly Data (April 2021)
Hourly Data Report for April 21, 2021
TIME
LST
Temp Definition
°C
Dew Point Definition
°C
Rel Hum Definition
%
Precip. Amount Definition
mm

Wind Dir Definition
10's deg

Wind Spd Definition
km/h
Visibility Definition
km
Stn Press Definition
kPa
Hmdx Definition


Wind Chill Definition


Weather Definition


00:00 4.2 3.6 96 LegendMM 21 7 24.1 102.12     LegendNANA
01:00 4.8 4.6 98 LegendMM 22 7 24.1 102.07     Mostly Cloudy
02:00 4.1 3.7 97 LegendMM 22 7 19.3 102.07     LegendNANA
03:00 3.5 3.2 98 LegendMM 27 9 24.1 102.09     LegendNANA
04:00 4.6 4.3 98 LegendMM 23 6 19.3 102.08     Mostly Cloudy
05:00 6.8 5.8 94 LegendMM 27 7 19.3 102.05     LegendNANA
06:00 7.3 6.3 93 LegendMM 20 4 16.1 102.04     LegendNANA
07:00 8.1 6.2 88 LegendMM 27 5 16.1 102.05     Mostly Cloudy
08:00 8.4 6.4 87 LegendMM 30 16 12.9 102.07     LegendNANA
09:00 8.8 6.5 85 LegendMM 32 15 12.9 102.09     LegendNANA
10:00 10.1 6.5 78 LegendMM 33 16 12.9 102.05     Mostly Cloudy
11:00 10.9 6.5 74 LegendMM 35 26 12.9 102.00     LegendNANA
12:00 11.3 6.8 74 LegendMM 34 21 24.1 101.99     LegendNANA
13:00 11.2 6.0 70 LegendMM 32 27 24.1 101.98     Mostly Cloudy
14:00 11.0 6.1 72 LegendMM 33 24 24.1 101.95     LegendNANA
15:00 10.8 6.1 73 LegendMM 34 28 24.1 101.93     LegendNANA
16:00 13.1 3.7 53 LegendMM 32 26 LegendMM 101.86     Mostly Cloudy
17:00 13.4 1.8 45 LegendMM 31 25 24.1 101.79     LegendNANA
18:00 12.6 2.4 50 LegendMM 32 18 24.1 101.73     LegendNANA
19:00 11.1 2.3 54 LegendMM 29 15 24.1 101.68     Mainly Clear
20:00 8.4 2.6 66 LegendMM 25 10 24.1 101.69     LegendNANA
21:00 7.9 0.6 60 LegendMM 25 9 24.1 101.68     LegendNANA
22:00 7.4 -0.9 55 LegendMM 25 8 24.1 101.65     Mainly Clear
23:00 7.2 0.7 63 LegendMM 27 11 24.1 101.64     LegendNANA

Notes on Data Quality.

Legend

  • E = Estimated
  • M = Missing
  • NA = Not Available*
  • [empty] = Indicates an unobserved value
Date modified: